TimePST,TemperatureF,Dew PointF,Humidity,Sea Level PressureIn,VisibilityMPH,Wind Direction,Wind SpeedMPH,Gust SpeedMPH,PrecipitationIn,Events,Conditions,WindDirDegrees,DateUTC
12:53 AM,36.0,34.0,93,30.25,6.0,Calm,Calm,-,N/A,,Partly Cloudy,0,2013-01-01 08:53:00
1:48 AM,28.4,28.4,100,30.27,0.8,North,6.9,-,N/A,,Partly Cloudy,350,2013-01-01 09:48:00
1:53 AM,30.9,30.0,96,30.27,3.0,North,4.6,-,N/A,,Partly Cloudy,350,2013-01-01 09:53:00
2:53 AM,33.1,33.1,100,30.28,3.0,NNE,5.8,-,N/A,Fog,Partly Cloudy,20,2013-01-01 10:53:00
3:53 AM,34.0,33.1,96,30.29,3.0,WNW,5.8,-,N/A,Fog,Scattered Clouds,300,2013-01-01 11:53:00
4:53 AM,33.1,32.0,96,30.27,5.0,NW,6.9,-,N/A,,Clear,310,2013-01-01 12:53:00
5:53 AM,33.1,30.9,92,30.28,5.0,NW,8.1,-,N/A,,Clear,320,2013-01-01 13:53:00
6:53 AM,33.1,30.9,92,30.28,10.0,NW,6.9,-,N/A,,Clear,310,2013-01-01 14:53:00
7:53 AM,33.1,30.9,92,30.28,10.0,NW,6.9,-,N/A,,Clear,320,2013-01-01 15:53:00
8:53 AM,36.0,33.1,89,30.27,10.0,NW,4.6,-,N/A,,Clear,310,2013-01-01 16:53:00
9:53 AM,39.9,34.0,79,30.30,10.0,NW,9.2,-,N/A,,Clear,320,2013-01-01 17:53:00
10:53 AM,44.1,35.1,71,30.31,10.0,NW,9.2,-,N/A,,Clear,320,2013-01-01 18:53:00
11:53 AM,46.9,37.0,68,30.29,10.0,NW,8.1,-,N/A,,Clear,320,2013-01-01 19:53:00
12:53 PM,48.0,36.0,63,30.27,10.0,NNW,11.5,-,N/A,,Clear,330,2013-01-01 20:53:00
1:53 PM,51.1,35.1,54,30.26,10.0,NNW,3.5,-,N/A,,Clear,340,2013-01-01 21:53:00
2:53 PM,51.1,35.1,54,30.25,10.0,NW,4.6,-,N/A,,Clear,320,2013-01-01 22:53:00
3:53 PM,52.0,30.9,45,30.23,10.0,Calm,Calm,-,N/A,,Clear,0,2013-01-01 23:53:00
4:53 PM,48.0,32.0,54,30.22,10.0,Calm,Calm,-,N/A,,Clear,0,2013-01-02 00:53:00
5:53 PM,45.0,34.0,65,30.22,10.0,ESE,3.5,-,N/A,,Clear,120,2013-01-02 01:53:00
6:53 PM,41.0,33.1,73,30.23,10.0,SSW,3.5,-,N/A,,Clear,200,2013-01-02 02:53:00
7:53 PM,41.0,34.0,76,30.23,10.0,SSW,4.6,-,N/A,,Clear,210,2013-01-02 03:53:00
8:53 PM,41.0,35.1,79,30.24,10.0,SW,5.8,-,N/A,,Clear,230,2013-01-02 04:53:00
9:53 PM,37.9,33.1,83,30.26,10.0,ESE,5.8,-,N/A,,Clear,110,2013-01-02 05:53:00
10:53 PM,39.9,33.1,77,30.27,10.0,SE,5.8,-,N/A,,Clear,140,2013-01-02 06:53:00
11:53 PM,34.0,30.9,89,30.27,10.0,Calm,Calm,-,N/A,,Clear,0,2013-01-02 07:53:00